Time,TemperatureF,DewpointF,PressureIn,WindDirection,WindDirectionDegrees,WindSpeedMPH,WindSpeedGustMPH,Humidity,HourlyPrecipIn,Conditions,Clouds,dailyrainin,SolarRadiationWatts/m^2,SoftwareType,DateUTC
2013-09-29 00:12:00,38.0,33.0,-100.00,SW,215,3.0,4.0,83,0.00,,,0.04,0.000000,,2013-09-29 06:12:00,
2013-09-29 00:22:00,38.0,33.0,-100.00,SW,215,3.0,4.0,83,0.00,,,0.04,0.000000,,2013-09-29 06:22:00,
2013-09-29 00:32:00,38.0,33.0,-100.00,SW,215,3.0,4.0,83,0.00,,,0.04,0.000000,,2013-09-29 06:32:00,
2013-09-29 01:11:00,40.0,33.0,-100.00,SW,215,5.0,7.0,75,0.00,,,0.04,0.000000,,2013-09-29 07:11:00,
2013-09-29 01:22:00,40.0,33.0,-100.00,SW,215,5.0,7.0,75,0.00,,,0.04,0.000000,,2013-09-29 07:22:00,
2013-09-29 01:32:00,40.0,33.0,-100.00,SW,215,5.0,7.0,75,0.00,,,0.04,0.000000,,2013-09-29 07:32:00,
2013-09-29 02:12:00,38.0,32.0,-100.00,South,187,2.0,6.0,80,0.00,,,0.04,0.000000,,2013-09-29 08:12:00,
2013-09-29 02:22:00,38.0,32.0,-100.00,South,187,2.0,6.0,80,0.00,,,0.04,0.000000,,2013-09-29 08:22:00,
2013-09-29 02:32:00,38.0,32.0,-100.00,South,187,2.0,6.0,80,0.00,,,0.04,0.000000,,2013-09-29 08:32:00,
2013-09-29 03:11:00,40.0,33.0,-100.00,SW,228,5.0,8.0,77,0.00,,,0.04,0.000000,,2013-09-29 09:11:00,
2013-09-29 03:22:00,40.0,33.0,-100.00,SW,228,5.0,8.0,77,0.00,,,0.04,0.000000,,2013-09-29 09:22:00,
2013-09-29 03:33:00,40.0,33.0,-100.00,SW,228,5.0,8.0,77,0.00,,,0.04,0.000000,,2013-09-29 09:33:00,
2013-09-29 04:12:00,39.0,33.0,-100.00,SSW,213,3.0,8.0,80,0.00,,,0.04,0.000000,,2013-09-29 10:12:00,
2013-09-29 04:23:00,39.0,33.0,-100.00,SSW,213,3.0,8.0,80,0.00,,,0.04,0.000000,,2013-09-29 10:23:00,
2013-09-29 04:32:00,39.0,33.0,-100.00,SSW,213,3.0,8.0,80,0.00,,,0.04,0.000000,,2013-09-29 10:32:00,
2013-09-29 05:12:00,39.0,34.0,-100.00,South,188,2.0,5.0,82,0.00,,,-99.99,0.000000,,2013-09-29 11:12:00,
2013-09-29 05:22:00,39.0,34.0,-100.00,South,188,2.0,5.0,82,0.00,,,-99.99,0.000000,,2013-09-29 11:22:00,
2013-09-29 05:33:00,39.0,34.0,-100.00,South,188,2.0,5.0,82,0.00,,,-99.99,0.000000,,2013-09-29 11:33:00,
2013-09-29 06:12:00,38.0,32.0,-100.00,SSW,194,3.0,5.0,80,0.00,,,0.04,0.000000,,2013-09-29 12:12:00,
2013-09-29 06:21:00,38.0,32.0,-100.00,SSW,194,3.0,5.0,80,0.00,,,0.04,0.000000,,2013-09-29 12:21:00,
2013-09-29 06:32:00,38.0,32.0,-100.00,SSW,194,3.0,5.0,80,0.00,,,0.04,0.000000,,2013-09-29 12:32:00,
2013-09-29 07:11:00,38.0,31.0,-100.00,South,185,3.0,7.0,75,0.00,,,-99.99,0.000000,,2013-09-29 13:11:00,
2013-09-29 07:22:00,38.0,31.0,-100.00,South,185,3.0,7.0,75,0.00,,,-99.99,0.000000,,2013-09-29 13:22:00,
2013-09-29 07:32:00,38.0,31.0,-100.00,South,185,3.0,7.0,75,0.00,,,-99.99,0.000000,,2013-09-29 13:32:00,
2013-09-29 08:12:00,39.0,31.0,-100.00,SSW,198,3.0,7.0,73,0.00,,,0.04,11.000000,,2013-09-29 14:12:00,
2013-09-29 08:21:00,39.0,31.0,-100.00,SSW,198,3.0,7.0,73,0.00,,,0.04,11.000000,,2013-09-29 14:21:00,
2013-09-29 08:32:00,39.0,31.0,-100.00,SSW,198,3.0,7.0,73,0.00,,,0.04,11.000000,,2013-09-29 14:32:00,
2013-09-29 09:12:00,45.0,33.0,-100.00,SSW,210,6.0,9.0,62,0.00,,,0.04,178.000000,,2013-09-29 15:12:00,
2013-09-29 09:22:00,45.0,33.0,-100.00,SSW,210,6.0,9.0,62,0.00,,,0.04,178.000000,,2013-09-29 15:22:00,
2013-09-29 09:35:00,45.0,33.0,-100.00,SSW,210,6.0,9.0,62,0.00,,,0.04,178.000000,,2013-09-29 15:35:00,
2013-09-29 10:14:00,48.0,32.0,-100.00,SW,217,7.0,13.0,53,0.00,,,0.01,377.000000,,2013-09-29 16:14:00,
2013-09-29 10:24:00,48.0,32.0,-100.00,SW,217,7.0,13.0,53,0.00,,,0.01,377.000000,,2013-09-29 16:24:00,
2013-09-29 10:33:00,48.0,32.0,-100.00,SW,217,7.0,13.0,53,0.00,,,0.01,377.000000,,2013-09-29 16:33:00,
2013-09-29 11:12:00,52.0,32.0,-100.00,SW,236,7.0,16.0,46,0.00,,,0.00,561.000000,,2013-09-29 17:12:00,
2013-09-29 11:24:00,52.0,32.0,-100.00,SW,236,7.0,16.0,46,0.00,,,0.00,561.000000,,2013-09-29 17:24:00,
2013-09-29 11:34:00,52.0,32.0,-100.00,SW,236,7.0,16.0,46,0.00,,,0.00,561.000000,,2013-09-29 17:34:00,
2013-09-29 12:13:00,56.0,34.0,-100.00,SW,227,6.0,12.0,43,0.00,,,0.00,614.000000,,2013-09-29 18:13:00,
2013-09-29 12:22:00,56.0,34.0,-100.00,SW,227,6.0,12.0,43,0.00,,,0.00,614.000000,,2013-09-29 18:22:00,
2013-09-29 12:32:00,56.0,34.0,-100.00,SW,227,6.0,12.0,43,0.00,,,0.00,614.000000,,2013-09-29 18:32:00,
2013-09-29 13:11:00,59.0,32.0,-100.00,SW,229,7.0,14.0,36,0.00,,,0.00,702.000000,,2013-09-29 19:11:00,
2013-09-29 13:22:00,59.0,32.0,-100.00,SW,229,7.0,14.0,36,0.00,,,0.00,702.000000,,2013-09-29 19:22:00,
2013-09-29 13:32:00,59.0,32.0,-100.00,SW,229,7.0,14.0,36,0.00,,,0.00,702.000000,,2013-09-29 19:32:00,
2013-09-29 14:12:00,58.0,31.0,-100.00,SW,231,7.0,15.0,36,0.00,,,0.00,676.000000,,2013-09-29 20:12:00,
2013-09-29 14:22:00,58.0,31.0,-100.00,SW,231,7.0,15.0,36,0.00,,,0.00,676.000000,,2013-09-29 20:22:00,
2013-09-29 14:32:00,58.0,31.0,-100.00,SW,231,7.0,15.0,36,0.00,,,0.00,676.000000,,2013-09-29 20:32:00,
2013-09-29 15:11:00,60.0,31.0,-100.00,SW,234,8.0,16.0,33,0.00,,,0.00,405.000000,,2013-09-29 21:11:00,
2013-09-29 15:21:00,60.0,31.0,-100.00,SW,234,8.0,16.0,33,0.00,,,0.00,405.000000,,2013-09-29 21:21:00,
2013-09-29 15:34:00,60.0,31.0,-100.00,SW,234,8.0,16.0,33,0.00,,,0.00,405.000000,,2013-09-29 21:34:00,
2013-09-29 16:14:00,61.0,29.0,-100.00,SW,226,10.0,19.0,30,0.00,,,0.00,415.000000,,2013-09-29 22:14:00,
2013-09-29 16:24:00,61.0,29.0,-100.00,SW,226,10.0,19.0,30,0.00,,,0.00,415.000000,,2013-09-29 22:24:00,
2013-09-29 16:33:00,61.0,29.0,-100.00,SW,226,10.0,19.0,30,0.00,,,0.00,415.000000,,2013-09-29 22:33:00,
2013-09-29 17:12:00,58.0,29.0,-100.00,SW,233,9.0,20.0,33,0.00,,,0.00,171.000000,,2013-09-29 23:12:00,
2013-09-29 17:23:00,58.0,29.0,-100.00,SW,233,9.0,20.0,33,0.00,,,0.00,171.000000,,2013-09-29 23:23:00,
2013-09-29 17:34:00,58.0,29.0,-100.00,SW,233,9.0,20.0,33,0.00,,,0.00,171.000000,,2013-09-29 23:34:00,
2013-09-29 18:11:00,57.0,31.0,-100.00,WSW,251,7.0,14.0,37,0.00,,,0.00,90.000000,,2013-09-30 00:11:00,
2013-09-29 18:22:00,57.0,31.0,-100.00,WSW,251,7.0,14.0,37,0.00,,,0.00,90.000000,,2013-09-30 00:22:00,
2013-09-29 18:32:00,57.0,31.0,-100.00,WSW,251,7.0,14.0,37,0.00,,,0.00,90.000000,,2013-09-30 00:32:00,
2013-09-29 19:11:00,55.0,31.0,-100.00,WSW,251,6.0,14.0,39,0.00,,,0.00,30.000000,,2013-09-30 01:11:00,
2013-09-29 19:22:00,55.0,31.0,-100.00,WSW,251,6.0,14.0,39,0.00,,,0.00,30.000000,,2013-09-30 01:22:00,
2013-09-29 19:32:00,55.0,31.0,-100.00,WSW,251,6.0,14.0,39,0.00,,,0.00,30.000000,,2013-09-30 01:32:00,
2013-09-29 20:12:00,54.0,30.0,-100.00,West,273,5.0,19.0,40,0.00,,,0.00,1.000000,,2013-09-30 02:12:00,
2013-09-29 20:22:00,54.0,30.0,-100.00,West,273,5.0,19.0,40,0.00,,,0.00,1.000000,,2013-09-30 02:22:00,
2013-09-29 20:32:00,54.0,30.0,-100.00,West,273,5.0,19.0,40,0.00,,,0.00,1.000000,,2013-09-30 02:32:00,
2013-09-29 21:12:00,51.0,30.0,-100.00,WNW,285,2.0,9.0,44,0.00,,,0.00,0.000000,,2013-09-30 03:12:00,
2013-09-29 21:22:00,51.0,30.0,-100.00,WNW,285,2.0,9.0,44,0.00,,,0.00,0.000000,,2013-09-30 03:22:00,
2013-09-29 21:34:00,51.0,30.0,-100.00,WNW,285,2.0,9.0,44,0.00,,,0.00,0.000000,,2013-09-30 03:34:00,
2013-09-29 22:14:00,47.0,30.0,-100.00,South,182,0.0,3.0,51,0.00,,,0.00,0.000000,,2013-09-30 04:14:00,
2013-09-29 22:25:00,47.0,30.0,-100.00,South,182,0.0,3.0,51,0.00,,,0.00,0.000000,,2013-09-30 04:25:00,
2013-09-29 22:33:00,47.0,30.0,-100.00,South,182,0.0,3.0,51,0.00,,,0.00,0.000000,,2013-09-30 04:33:00,
2013-09-29 23:12:00,49.0,30.0,-100.00,WNW,283,1.0,3.0,48,0.00,,,0.00,0.000000,,2013-09-30 05:12:00,
2013-09-29 23:23:00,49.0,30.0,-100.00,WNW,283,1.0,3.0,48,0.00,,,0.00,0.000000,,2013-09-30 05:23:00,
2013-09-29 23:34:00,49.0,30.0,-100.00,WNW,283,1.0,3.0,48,0.00,,,0.00,0.000000,,2013-09-30 05:34:00,